RPA4667 KJFK-KBOS

Flight info

Callsign RPA4667
Flight time 0h 43m
Altitude 21000
Route MERIT ROBUC3
Aircraft E75L/M-SDE3GILORVW/S

Departure

Time 2026-05-09 14:43
Airport John F. Kennedy International Airport (KJFK)

Arrival

Time 2026-05-09 15:26
Airport Boston Logan International Airport (KBOS)
Time Latitude Longitude Altitude Speed Heading
2026-05-09 14:22 40.64929 -73.79355 23 ft 0 kts 331°
2026-05-09 14:30 40.64920 -73.79349 21 ft 3 kts 331°
2026-05-09 14:31 40.64902 -73.79336 21 ft 3 kts 331°
2026-05-09 14:31 40.64885 -73.79324 21 ft 3 kts 341°
2026-05-09 14:31 40.64870 -73.79326 23 ft 3 kts 49°
2026-05-09 14:31 40.64864 -73.79339 22 ft 2 kts 60°
2026-05-09 14:32 40.64857 -73.79354 23 ft 1 kts 60°
2026-05-09 14:32 40.64857 -73.79355 23 ft 0 kts 60°
2026-05-09 14:33 40.64865 -73.79336 23 ft 5 kts 60°
2026-05-09 14:34 40.64893 -73.79271 23 ft 11 kts 61°
2026-05-09 14:34 40.64930 -73.79183 21 ft 12 kts 61°
2026-05-09 14:34 40.64974 -73.79083 22 ft 13 kts 58°
2026-05-09 14:34 40.65022 -73.78972 23 ft 15 kts 61°
2026-05-09 14:35 40.65086 -73.78912 21 ft 11 kts
2026-05-09 14:35 40.65134 -73.78858 21 ft 10 kts 76°
2026-05-09 14:35 40.65151 -73.78752 23 ft 13 kts 73°
2026-05-09 14:35 40.65195 -73.78637 27 ft 13 kts 61°
2026-05-09 14:36 40.65250 -73.78504 21 ft 20 kts 62°
2026-05-09 14:36 40.65252 -73.78345 24 ft 17 kts 121°
2026-05-09 14:36 40.65187 -73.78203 22 ft 20 kts 121°
2026-05-09 14:36 40.65126 -73.78067 21 ft 14 kts 117°
2026-05-09 14:37 40.65150 -73.77976 20 ft 9 kts 31°
2026-05-09 14:37 40.65173 -73.77958 18 ft 4 kts 31°
2026-05-09 14:37 40.65181 -73.77951 18 ft 0 kts 32°
2026-05-09 14:39 40.65194 -73.77941 20 ft 5 kts 32°
2026-05-09 14:39 40.65239 -73.77904 16 ft 10 kts 31°
2026-05-09 14:39 40.65305 -73.77851 18 ft 12 kts 31°
2026-05-09 14:40 40.65331 -73.77763 18 ft 12 kts 110°
2026-05-09 14:40 40.65283 -73.77655 17 ft 16 kts 122°
2026-05-09 14:40 40.65219 -73.77512 16 ft 20 kts 121°
2026-05-09 14:40 40.65144 -73.77346 18 ft 22 kts 121°
2026-05-09 14:41 40.65058 -73.77163 18 ft 25 kts 122°
2026-05-09 14:41 40.64968 -73.76960 19 ft 27 kts 120°
2026-05-09 14:41 40.64886 -73.76776 19 ft 18 kts 116°
2026-05-09 14:41 40.64933 -73.76657 20 ft 17 kts 29°
2026-05-09 14:42 40.65042 -73.76572 19 ft 19 kts 31°
2026-05-09 14:42 40.65092 -73.76453 22 ft 11 kts 107°
2026-05-09 14:42 40.65054 -73.76389 21 ft 9 kts 134°
2026-05-09 14:42 40.64994 -73.76379 20 ft 10 kts 208°
2026-05-09 14:43 40.64879 -73.76468 20 ft 47 kts 210°
2026-05-09 14:43 40.64364 -73.76869 18 ft 124 kts 210°
2026-05-09 14:43 40.63483 -73.77536 420 ft 155 kts 208°
2026-05-09 14:43 40.62555 -73.78254 1488 ft 147 kts 213°
2026-05-09 14:44 40.61658 -73.78972 2207 ft 160 kts 214°
2026-05-09 14:44 40.60679 -73.79771 2980 ft 175 kts 215°
2026-05-09 14:44 40.59587 -73.80684 3618 ft 196 kts 215°
2026-05-09 14:44 40.58395 -73.81695 4375 ft 212 kts 214°
2026-05-09 14:45 40.57089 -73.82814 4843 ft 236 kts 215°
2026-05-09 14:45 40.55682 -73.83989 4909 ft 242 kts 208°
2026-05-09 14:45 40.54000 -73.84276 5614 ft 251 kts 173°
2026-05-09 14:45 40.52423 -73.83217 6586 ft 267 kts 143°
2026-05-09 14:46 40.51428 -73.81085 7355 ft 286 kts 112°
2026-05-09 14:46 40.51338 -73.78425 8070 ft 302 kts 83°
2026-05-09 14:46 40.52216 -73.75878 8758 ft 312 kts 56°
2026-05-09 14:46 40.53622 -73.73669 9451 ft 317 kts 50°
2026-05-09 14:47 40.55127 -73.71526 10105 ft 322 kts 48°
2026-05-09 14:47 40.56709 -73.69328 10396 ft 339 kts 47°
2026-05-09 14:47 40.58369 -73.67026 10681 ft 353 kts 47°
2026-05-09 14:47 40.60084 -73.64641 11087 ft 362 kts 47°
2026-05-09 14:48 40.61821 -73.62211 11673 ft 367 kts 47°
2026-05-09 14:48 40.63575 -73.59747 12274 ft 371 kts 47°
2026-05-09 14:48 40.65345 -73.57244 12911 ft 375 kts 47°
2026-05-09 14:48 40.67126 -73.54705 13573 ft 380 kts 47°
2026-05-09 14:49 40.68920 -73.52183 14192 ft 383 kts 42°
2026-05-09 14:49 40.71150 -73.50281 14811 ft 381 kts 19°
2026-05-09 14:49 40.73649 -73.49125 15519 ft 380 kts 12°
2026-05-09 14:49 40.76185 -73.48097 16194 ft 383 kts 11°
2026-05-09 14:50 40.78745 -73.47051 16857 ft 386 kts 11°
2026-05-09 14:50 40.81319 -73.45952 17505 ft 394 kts 15°
2026-05-09 14:50 40.83713 -73.44046 18172 ft 411 kts 38°
2026-05-09 14:50 40.85536 -73.41093 18815 ft 421 kts 59°
2026-05-09 14:51 40.86731 -73.37542 19464 ft 425 kts 68°
2026-05-09 14:51 40.87802 -73.33877 20099 ft 430 kts 68°
2026-05-09 14:51 40.88932 -73.30195 20717 ft 435 kts 66°
2026-05-09 14:51 40.90133 -73.26615 20852 ft 424 kts 63°
2026-05-09 14:52 40.91423 -73.23021 20948 ft 438 kts 62°
2026-05-09 14:52 40.92774 -73.19407 20992 ft 437 kts 59°
2026-05-09 14:52 40.94313 -73.15946 21007 ft 436 kts 57°
2026-05-09 14:52 40.95883 -73.12513 21031 ft 437 kts 56°
2026-05-09 14:53 40.97473 -73.09081 21014 ft 437 kts 56°
2026-05-09 14:53 40.99080 -73.05620 21016 ft 450 kts 56°
2026-05-09 14:53 41.00731 -73.02059 21031 ft 467 kts 56°
2026-05-09 14:53 41.02421 -72.98401 21022 ft 464 kts 57°
2026-05-09 14:54 41.04103 -72.94762 20999 ft 462 kts 56°
2026-05-09 14:54 41.05780 -72.91127 21006 ft 462 kts 56°
2026-05-09 14:54 41.07459 -72.87486 21021 ft 462 kts 56°
2026-05-09 14:54 41.09136 -72.83848 21011 ft 462 kts 56°
2026-05-09 14:55 41.10245 -72.81434 21009 ft 462 kts 56°
2026-05-09 14:55 41.11918 -72.77794 21021 ft 462 kts 56°
2026-05-09 14:55 41.13591 -72.74146 21006 ft 462 kts 56°
2026-05-09 14:55 41.15263 -72.70498 21010 ft 462 kts 56°
2026-05-09 14:56 41.16935 -72.66847 21018 ft 462 kts 56°
2026-05-09 14:56 41.18604 -72.63195 21014 ft 462 kts 56°
2026-05-09 14:56 41.20275 -72.59536 21004 ft 462 kts 56°
2026-05-09 14:56 41.21941 -72.55882 21018 ft 462 kts 56°
2026-05-09 14:57 41.23587 -72.52271 21030 ft 462 kts 56°
2026-05-09 14:57 41.25249 -72.48618 21019 ft 462 kts 56°
2026-05-09 14:57 41.26917 -72.44952 21032 ft 462 kts 57°
2026-05-09 14:57 41.28573 -72.41298 21018 ft 462 kts 57°
2026-05-09 14:58 41.30232 -72.37641 21021 ft 462 kts 57°
2026-05-09 14:58 41.31879 -72.34001 21017 ft 453 kts 57°
2026-05-09 14:58 41.33499 -72.30420 21013 ft 448 kts 57°
2026-05-09 14:58 41.35108 -72.26860 20771 ft 448 kts 57°
2026-05-09 14:59 41.36701 -72.23325 20425 ft 442 kts 57°
2026-05-09 14:59 41.38260 -72.19870 20091 ft 428 kts 56°
2026-05-09 14:59 41.39758 -72.16545 19778 ft 421 kts 56°
2026-05-09 14:59 41.41264 -72.13196 19459 ft 421 kts 57°
2026-05-09 15:00 41.42766 -72.09852 19144 ft 420 kts 57°
2026-05-09 15:00 41.44258 -72.06524 18889 ft 416 kts 57°
2026-05-09 15:00 41.45738 -72.03224 18655 ft 415 kts 57°
2026-05-09 15:00 41.47216 -71.99925 18421 ft 413 kts 57°
2026-05-09 15:01 41.50139 -71.93384 17922 ft 408 kts 57°
2026-05-09 15:01 41.51590 -71.90134 17669 ft 407 kts 57°
2026-05-09 15:01 41.53034 -71.86893 17440 ft 405 kts 57°
2026-05-09 15:02 41.54471 -71.83668 17204 ft 403 kts 57°
2026-05-09 15:02 41.55882 -71.80496 16979 ft 401 kts 57°
2026-05-09 15:02 41.57300 -71.77308 16773 ft 397 kts 58°
2026-05-09 15:02 41.58708 -71.74130 16562 ft 396 kts 58°
2026-05-09 15:03 41.60115 -71.70959 16358 ft 395 kts 58°
2026-05-09 15:03 41.61513 -71.67803 16161 ft 394 kts 58°
2026-05-09 15:03 41.62904 -71.64660 15953 ft 392 kts 58°
2026-05-09 15:03 41.64287 -71.61529 15751 ft 391 kts 58°
2026-05-09 15:04 41.65651 -71.58442 15575 ft 388 kts 58°
2026-05-09 15:04 41.66991 -71.55401 15355 ft 372 kts 58°
2026-05-09 15:06 41.75735 -71.35325 13984 ft 350 kts 59°
2026-05-09 15:06 41.76928 -71.32531 13805 ft 349 kts 59°
2026-05-09 15:06 41.78133 -71.29707 13649 ft 349 kts 59°
2026-05-09 15:06 41.79338 -71.26881 13463 ft 349 kts 59°
2026-05-09 15:07 41.80540 -71.24062 13202 ft 349 kts 59°
2026-05-09 15:07 41.81741 -71.21239 12907 ft 348 kts 59°
2026-05-09 15:07 41.82940 -71.18421 12609 ft 347 kts 59°
2026-05-09 15:07 41.84113 -71.15599 12329 ft 346 kts 59°
2026-05-09 15:08 41.85311 -71.12822 12037 ft 339 kts 59°
2026-05-09 15:08 41.87648 -71.07425 11480 ft 333 kts 59°
2026-05-09 15:08 41.88797 -71.04769 11212 ft 334 kts 59°
2026-05-09 15:09 41.89975 -71.02037 10938 ft 334 kts 59°
2026-05-09 15:10 41.98041 -70.83286 9424 ft 328 kts 59°
2026-05-09 15:11 41.99187 -70.80642 9224 ft 327 kts 58°
2026-05-09 15:11 42.00413 -70.78055 9031 ft 328 kts 55°
2026-05-09 15:11 42.01707 -70.75520 8834 ft 327 kts 52°
2026-05-09 15:11 42.03155 -70.73167 8609 ft 326 kts 46°
2026-05-09 15:12 42.04632 -70.70919 8376 ft 324 kts 46°
2026-05-09 15:12 42.06134 -70.68667 8153 ft 322 kts 46°
2026-05-09 15:12 42.07627 -70.66432 8050 ft 321 kts 46°
2026-05-09 15:12 42.09262 -70.64409 7993 ft 318 kts 31°
2026-05-09 15:13 42.11156 -70.62893 7845 ft 316 kts 21°
2026-05-09 15:13 42.13155 -70.61713 7533 ft 311 kts 15°
2026-05-09 15:13 42.15171 -70.60716 7234 ft 307 kts 13°
2026-05-09 15:13 42.17197 -70.59891 6946 ft 301 kts
2026-05-09 15:14 42.19238 -70.59279 6668 ft 300 kts
2026-05-09 15:14 42.21279 -70.58700 6374 ft 299 kts
2026-05-09 15:14 42.23314 -70.58135 6061 ft 296 kts
2026-05-09 15:14 42.25320 -70.57577 5750 ft 293 kts
2026-05-09 15:15 42.27306 -70.57021 5466 ft 290 kts
2026-05-09 15:15 42.29254 -70.56497 5181 ft 286 kts
2026-05-09 15:15 42.31156 -70.56774 5046 ft 270 kts 332°
2026-05-09 15:15 42.32611 -70.58231 5006 ft 257 kts 303°
2026-05-09 15:16 42.33756 -70.60101 5009 ft 261 kts 310°
2026-05-09 15:16 42.35128 -70.61739 5004 ft 264 kts 314°
2026-05-09 15:16 42.36561 -70.63291 4997 ft 265 kts 316°
2026-05-09 15:16 42.38031 -70.64846 4706 ft 269 kts 317°
2026-05-09 15:17 42.39500 -70.66401 4391 ft 268 kts 317°
2026-05-09 15:17 42.40963 -70.67966 4070 ft 269 kts 317°
2026-05-09 15:17 42.42424 -70.69554 3775 ft 270 kts 317°
2026-05-09 15:17 42.43877 -70.71163 3455 ft 267 kts 317°
2026-05-09 15:18 42.45295 -70.72757 3144 ft 262 kts 317°
2026-05-09 15:18 42.46665 -70.74308 3032 ft 251 kts 317°
2026-05-09 15:18 42.47981 -70.75809 3006 ft 244 kts 317°
2026-05-09 15:18 42.49246 -70.77254 3013 ft 239 kts 317°
2026-05-09 15:19 42.50526 -70.78710 3007 ft 241 kts 317°
2026-05-09 15:19 42.51802 -70.80171 2997 ft 238 kts 317°
2026-05-09 15:19 42.53048 -70.81595 3001 ft 230 kts 317°
2026-05-09 15:19 42.54273 -70.82990 3014 ft 230 kts 317°
2026-05-09 15:20 42.55426 -70.84462 3038 ft 225 kts 301°
2026-05-09 15:20 42.56540 -70.88337 3043 ft 214 kts 266°
2026-05-09 15:20 42.56185 -70.90156 2996 ft 192 kts 232°
2026-05-09 15:21 42.55200 -70.91279 3002 ft 185 kts 203°
2026-05-09 15:21 42.54043 -70.91896 2995 ft 170 kts 198°
2026-05-09 15:21 42.52996 -70.92458 3006 ft 155 kts 199°
2026-05-09 15:21 42.51975 -70.92969 3019 ft 159 kts 197°
2026-05-09 15:22 42.50935 -70.93472 2837 ft 161 kts 197°
2026-05-09 15:22 42.49909 -70.93977 2661 ft 154 kts 197°
2026-05-09 15:22 42.48898 -70.94469 2469 ft 155 kts 197°
2026-05-09 15:22 42.47881 -70.94966 2279 ft 155 kts 196°
2026-05-09 15:23 42.46879 -70.95454 2055 ft 146 kts 196°
2026-05-09 15:23 42.45973 -70.95896 1841 ft 131 kts 195°
2026-05-09 15:23 42.45137 -70.96302 1643 ft 125 kts 195°
2026-05-09 15:23 42.44345 -70.96689 1476 ft 118 kts 194°
2026-05-09 15:24 42.43596 -70.97054 1314 ft 111 kts 195°
2026-05-09 15:24 42.42863 -70.97410 1168 ft 113 kts 195°
2026-05-09 15:24 42.42129 -70.97768 1054 ft 114 kts 197°
2026-05-09 15:24 42.41377 -70.98134 902 ft 115 kts 197°
2026-05-09 15:25 42.40613 -70.98497 749 ft 117 kts 195°
2026-05-09 15:25 42.39827 -70.98853 625 ft 123 kts 198°
2026-05-09 15:25 42.39022 -70.99253 413 ft 124 kts 200°
2026-05-09 15:26 42.37416 -71.00058 39 ft 119 kts 199°
2026-05-09 15:26 42.36713 -71.00396 23 ft 89 kts 197°
2026-05-09 15:26 42.36251 -71.00622 25 ft 55 kts 201°
2026-05-09 15:26 42.36018 -71.00763 20 ft 30 kts 217°
2026-05-09 15:27 42.35888 -71.00965 20 ft 27 kts 228°
2026-05-09 15:27 42.35831 -71.01113 24 ft 14 kts 268°
2026-05-09 15:27 42.35842 -71.01227 23 ft 8 kts 282°
2026-05-09 15:27 42.35848 -71.01273 26 ft 0 kts 281°
2026-05-09 15:28 42.35848 -71.01274 26 ft 0 kts 280°
2026-05-09 15:28 42.35851 -71.01296 25 ft 6 kts 279°
2026-05-09 15:28 42.35862 -71.01387 30 ft 14 kts 278°
2026-05-09 15:28 42.35883 -71.01539 27 ft 17 kts 283°
2026-05-09 15:29 42.35906 -71.01706 28 ft 19 kts 281°
2026-05-09 15:29 42.35953 -71.01886 25 ft 22 kts 299°
2026-05-09 15:29 42.36029 -71.02061 24 ft 20 kts 300°
2026-05-09 15:29 42.36073 -71.02178 23 ft 8 kts 297°
2026-05-09 15:30 42.36100 -71.02196 22 ft 0 kts 18°
2026-05-09 15:30 42.36116 -71.02175 22 ft 5 kts 55°
2026-05-09 15:30 42.36126 -71.02146 24 ft 0 kts 77°